| time (UTC) | temp F | wind direction | speed MPH | gust MPH | rain 1hr in | rain 24hr in | rain mn in | humidity % | barometer mb |
| 20260904060530 | 55 | 270 | 0.0 | 1.0 | 0.05 | 1.19 | 1.19 | 96 | 1007.4 |
| 20260904060431 | 55 | 270 | 0.0 | 1.0 | 0.04 | 1.18 | 1.18 | 96 | 1007.3 |
| 20260904060026 | 55 | 268 | 0.0 | 1.0 | 0.04 | 1.18 | 1.18 | 96 | 1007.4 |
| 20260904055929 | 55 | 288 | 0.0 | 1.0 | 0.03 | 1.17 | 1.17 | 96 | 1007.4 |
| 20260904055528 | 55 | 288 | 0.0 | 1.0 | 0.03 | 1.17 | 1.17 | 96 | 1007.4 |
| 20260904055430 | 55 | 288 | 0.0 | 1.0 | 0.03 | 1.17 | 1.17 | 96 | 1007.4 |
| 20260904055030 | 55 | 288 | 0.0 | 1.0 | 0.02 | 1.16 | 1.16 | 96 | 1007.4 |
| 20260904054914 | 55 | 288 | 0.0 | 1.0 | 0.02 | 1.16 | 1.16 | 96 | 1007.4 |
| 20260904054515 | 55 | 289 | 0.0 | 1.0 | 0.01 | 1.15 | 1.15 | 96 | 1007.5 |
| 20260904054417 | 55 | 289 | 0.0 | 1.0 | 0.01 | 1.15 | 1.15 | 96 | 1007.5 |
| 20260904054020 | 55 | 289 | 0.0 | 1.0 | 0.01 | 1.15 | 1.15 | 96 | 1007.6 |
| 20260904053920 | 55 | 289 | 0.0 | 1.0 | 0.01 | 1.15 | 1.15 | 96 | 1007.6 |
| 20260904053522 | 55 | 289 | 0.0 | 1.0 | 0.01 | 1.15 | 1.15 | 96 | 1007.7 |
| 20260904053423 | 55 | 294 | 0.0 | 1.0 | 0.01 | 1.15 | 1.15 | 96 | 1007.6 |
| 20260904053027 | 55 | 294 | 0.0 | 1.0 | 0.01 | 1.15 | 1.15 | 96 | 1007.7 |
| 20260904052929 | 55 | 294 | 0.0 | 1.0 | 0.01 | 1.15 | 1.15 | 96 | 1007.7 |
| 20260904052513 | 55 | 293 | 0.0 | 1.0 | 0.01 | 1.15 | 1.15 | 95 | 1007.8 |
| 20260904052416 | 55 | 293 | 0.0 | 1.0 | 0.01 | 1.15 | 1.15 | 95 | 1007.8 |
| 20260904052013 | 55 | 293 | 0.0 | 1.0 | 0.01 | 1.15 | 1.15 | 95 | 1007.9 |
| 20260904051920 | 55 | 109 | 0.0 | 1.0 | 0.00 | 1.14 | 1.14 | 95 | 1007.9 |
| 20260904051520 | 55 | 110 | 0.0 | 1.0 | 0.00 | 1.14 | 1.14 | 95 | 1007.8 |
| 20260904051427 | 55 | 110 | 0.0 | 1.0 | 0.00 | 1.14 | 1.14 | 95 | 1007.8 |
| 20260904051027 | 55 | 290 | 0.0 | 1.0 | 0.01 | 1.14 | 1.14 | 95 | 1008.0 |
| 20260904050915 | 55 | 290 | 0.0 | 1.0 | 0.01 | 1.14 | 1.14 | 95 | 1007.9 |
| 20260904050517 | 55 | 290 | 0.0 | 1.0 | 0.02 | 1.14 | 1.14 | 95 | 1007.9 |
| 20260904050418 | 55 | 290 | 0.0 | 1.0 | 0.02 | 1.14 | 1.14 | 95 | 1008.0 |
| 20260904050013 | 55 | 290 | 0.0 | 1.0 | 0.02 | 1.14 | 1.14 | 95 | 1007.9 |
| 20260904045917 | 55 | 290 | 0.0 | 1.0 | 0.02 | 1.14 | 1.14 | 95 | 1008.0 |
| 20260904045520 | 55 | 290 | 0.0 | 1.0 | 0.02 | 1.14 | 1.14 | 95 | 1008.0 |
| 20260904045423 | 55 | 290 | 0.0 | 0.0 | 0.02 | 1.14 | 1.14 | 95 | 1008.0 |
| 20260904045029 | 55 | 290 | 0.0 | 0.0 | 0.02 | 1.14 | 1.14 | 95 | 1008.0 |
| 20260904044913 | 55 | 290 | 0.0 | 1.0 | 0.02 | 1.14 | 1.14 | 95 | 1007.9 |
| 20260904044521 | 55 | 290 | 0.0 | 1.0 | 0.02 | 1.14 | 1.14 | 95 | 1007.9 |
| 20260904044423 | 55 | 290 | 0.0 | 1.0 | 0.02 | 1.14 | 1.14 | 95 | 1007.9 |
| 20260904044028 | 55 | 290 | 0.0 | 1.0 | 0.02 | 1.14 | 1.14 | 95 | 1007.9 |
| 20260904043929 | 55 | 290 | 0.0 | 1.0 | 0.02 | 1.14 | 1.14 | 95 | 1008.0 |
| 20260904043532 | 55 | 290 | 0.0 | 1.0 | 0.02 | 1.14 | 1.14 | 95 | 1008.0 |
| 20260904043431 | 55 | 290 | 0.0 | 1.0 | 0.02 | 1.14 | 1.14 | 95 | 1008.0 |
| 20260904043013 | 56 | 290 | 0.0 | 0.0 | 0.02 | 1.14 | 1.14 | 95 | 1008.0 |
| 20260904042916 | 56 | 290 | 0.0 | 0.0 | 0.02 | 1.14 | 1.14 | 95 | 1008.1 |
| 20260904042521 | 56 | 290 | 0.0 | 1.0 | 0.02 | 1.14 | 1.14 | 95 | 1008.1 |
| 20260904042423 | 56 | 290 | 0.0 | 1.0 | 0.02 | 1.14 | 1.14 | 95 | 1008.1 |
| 20260904042028 | 56 | 290 | 0.0 | 1.0 | 0.02 | 1.14 | 1.14 | 95 | 1008.1 |
| 20260904041930 | 56 | 290 | 0.0 | 1.0 | 0.02 | 1.14 | 1.14 | 95 | 1008.1 |
| 20260904041532 | 56 | 290 | 0.0 | 1.0 | 0.02 | 1.14 | 1.14 | 95 | 1008.1 |
| 20260904041414 | 56 | 258 | 0.0 | 1.0 | 0.02 | 1.14 | 1.14 | 95 | 1008.1 |
| 20260904041018 | 56 | 253 | 0.0 | 1.0 | 0.02 | 1.13 | 1.13 | 95 | 1008.2 |
| 20260904040918 | 56 | 253 | 0.0 | 1.0 | 0.03 | 1.13 | 1.13 | 95 | 1008.2 |
| 20260904040553 | 56 | 253 | 0.0 | 2.0 | 0.02 | 1.12 | 1.12 | 95 | 1008.2 |
| 20260904040019 | 56 | 252 | 1.0 | 3.0 | 0.02 | 1.26 | 1.12 | 95 | 1008.2 |
| 20260904035920 | 56 | 345 | 0.0 | 3.0 | 0.02 | 1.26 | 1.12 | 95 | 1008.2 |
| 20260904035552 | 56 | 357 | 0.0 | 4.0 | 0.02 | 1.26 | 1.12 | 95 | 1008.3 |
| 20260904035022 | 56 | 324 | 1.0 | 4.0 | 0.02 | 1.26 | 1.12 | 95 | 1008.3 |
| 20260904034924 | 56 | 22 | 1.0 | 4.0 | 0.02 | 1.26 | 1.12 | 95 | 1008.3 |
| 20260904034525 | 56 | 20 | 0.0 | 2.0 | 0.02 | 1.26 | 1.12 | 95 | 1008.2 |
| 20260904034426 | 56 | 21 | 0.0 | 2.0 | 0.02 | 1.26 | 1.12 | 95 | 1008.2 |
| 20260904034026 | 56 | 20 | 1.0 | 2.0 | 0.02 | 1.26 | 1.12 | 95 | 1008.1 |
| 20260904033929 | 56 | 20 | 1.0 | 2.0 | 0.02 | 1.26 | 1.12 | 95 | 1008.2 |
| 20260904033516 | 56 | 353 | 0.0 | 2.0 | 0.02 | 1.26 | 1.12 | 95 | 1008.1 |
| 20260904033416 | 56 | 359 | 0.0 | 2.0 | 0.03 | 1.26 | 1.12 | 95 | 1008.1 |
| 20260904033019 | 56 | 57 | 0.0 | 3.0 | 0.04 | 1.26 | 1.12 | 95 | 1008.1 |
| 20260904032920 | 56 | 57 | 1.0 | 3.0 | 0.04 | 1.26 | 1.12 | 95 | 1008.1 |
| 20260904032515 | 56 | 311 | 1.0 | 3.0 | 0.06 | 1.26 | 1.12 | 95 | 1008.0 |
| 20260904032423 | 56 | 15 | 1.0 | 3.0 | 0.06 | 1.26 | 1.12 | 95 | 1008.0 |
| 20260904032020 | 56 | 334 | 1.0 | 6.0 | 0.12 | 1.26 | 1.12 | 95 | 1007.9 |
| 20260904031926 | 56 | 91 | 1.0 | 7.0 | 0.12 | 1.26 | 1.12 | 95 | 1007.9 |
| 20260904031524 | 56 | 88 | 2.0 | 9.0 | 0.12 | 1.26 | 1.12 | 94 | 1008.0 |
| 20260904031427 | 56 | 279 | 2.0 | 9.0 | 0.12 | 1.26 | 1.12 | 95 | 1008.1 |
| 20260904031029 | 56 | 67 | 2.0 | 9.0 | 0.19 | 1.25 | 1.11 | 95 | 1008.0 |
| 20260904030912 | 56 | 283 | 1.0 | 8.0 | 0.18 | 1.24 | 1.10 | 95 | 1008.0 |
| 20260904030515 | 56 | 323 | 2.0 | 8.0 | 0.21 | 1.24 | 1.10 | 95 | 1008.1 |
| 20260904030417 | 56 | 254 | 2.0 | 9.0 | 0.21 | 1.24 | 1.10 | 95 | 1008.1 |
| 20260904030029 | 56 | 43 | 2.0 | 9.0 | 0.22 | 1.25 | 1.10 | 95 | 1008.1 |
| 20260904025929 | 56 | 153 | 2.0 | 9.0 | 0.22 | 1.25 | 1.10 | 95 | 1008.1 |
| 20260904025529 | 56 | 280 | 2.0 | 8.0 | 0.25 | 1.25 | 1.10 | 95 | 1008.2 |
| 20260904025412 | 56 | 338 | 3.0 | 8.0 | 0.27 | 1.25 | 1.10 | 95 | 1008.1 |
| 20260904025014 | 56 | 39 | 3.0 | 6.0 | 0.28 | 1.25 | 1.10 | 95 | 1008.1 |
| 20260904024915 | 56 | 1 | 3.0 | 6.0 | 0.29 | 1.25 | 1.10 | 95 | 1008.1 |
| 20260904024518 | 56 | 318 | 1.0 | 4.0 | 0.31 | 1.25 | 1.10 | 95 | 1008.1 |
| 20260904024419 | 56 | 59 | 2.0 | 4.0 | 0.31 | 1.25 | 1.10 | 95 | 1008.1 |
| 20260904024022 | 56 | 287 | 1.0 | 6.0 | 0.35 | 1.25 | 1.10 | 95 | 1008.1 |
| 20260904023924 | 56 | 89 | 1.0 | 6.0 | 0.36 | 1.25 | 1.10 | 95 | 1008.1 |
| 20260904023526 | 56 | 266 | 2.0 | 6.0 | 0.51 | 1.25 | 1.10 | 95 | 1008.2 |
| 20260904023427 | 56 | 134 | 3.0 | 6.0 | 0.51 | 1.24 | 1.09 | 95 | 1008.2 |
| 20260904023029 | 56 | 267 | 1.0 | 3.0 | 0.52 | 1.23 | 1.08 | 95 | 1008.3 |
| 20260904022913 | 56 | 347 | 0.0 | 3.0 | 0.52 | 1.22 | 1.07 | 95 | 1008.4 |
| 20260904022516 | 56 | 60 | 1.0 | 3.0 | 0.52 | 1.21 | 1.06 | 95 | 1008.1 |
| 20260904022420 | 56 | 81 | 1.0 | 3.0 | 0.52 | 1.21 | 1.06 | 95 | 1008.1 |
| 20260904022023 | 56 | 31 | 0.0 | 2.0 | 0.46 | 1.15 | 1.00 | 95 | 1008.0 |
| 20260904021926 | 56 | 39 | 1.0 | 2.0 | 0.46 | 1.15 | 1.00 | 95 | 1008.1 |
| 20260904021528 | 56 | 13 | 0.0 | 3.0 | 0.46 | 1.15 | 1.00 | 94 | 1008.1 |
| 20260904021431 | 56 | 14 | 0.0 | 3.0 | 0.46 | 1.15 | 1.00 | 94 | 1008.2 |
| 20260904021013 | 56 | 296 | 1.0 | 10.0 | 0.38 | 1.07 | 0.92 | 94 | 1008.2 |
| 20260904020915 | 56 | 304 | 1.0 | 10.0 | 0.38 | 1.07 | 0.92 | 94 | 1008.2 |
| 20260904020515 | 56 | 309 | 3.0 | 10.0 | 0.35 | 1.04 | 0.89 | 94 | 1008.3 |
| 20260904020421 | 56 | 101 | 4.0 | 10.0 | 0.35 | 1.04 | 0.89 | 94 | 1008.3 |
| 20260904020030 | 56 | 353 | 1.0 | 7.0 | 0.34 | 1.03 | 0.88 | 94 | 1008.3 |
| 20260904015932 | 56 | 315 | 2.0 | 7.0 | 0.33 | 1.02 | 0.87 | 94 | 1008.4 |
| 20260904015532 | 56 | 311 | 1.0 | 7.0 | 0.29 | 0.98 | 0.83 | 94 | 1008.4 |
| 20260904015414 | 56 | 316 | 2.0 | 7.0 | 0.29 | 0.98 | 0.83 | 94 | 1008.4 |
| 20260904015015 | 56 | 16 | 2.0 | 8.0 | 0.28 | 0.97 | 0.82 | 93 | 1008.4 |
| 20260904014917 | 56 | 319 | 1.0 | 8.0 | 0.27 | 0.96 | 0.81 | 93 | 1008.5 |
| 20260904014517 | 56 | 91 | 3.0 | 8.0 | 0.26 | 0.94 | 0.79 | 92 | 1008.5 |
| 20260904014417 | 56 | 265 | 2.0 | 8.0 | 0.24 | 0.92 | 0.77 | 92 | 1008.5 |
| 20260904014016 | 57 | 175 | 3.0 | 8.0 | 0.21 | 0.89 | 0.74 | 92 | 1008.3 |
| 20260904013918 | 57 | 272 | 3.0 | 8.0 | 0.20 | 0.88 | 0.73 | 92 | 1008.2 |
| 20260904013523 | 57 | 217 | 1.0 | 7.0 | 0.05 | 0.73 | 0.58 | 92 | 1008.3 |
| 20260904013424 | 57 | 69 | 1.0 | 5.0 | 0.05 | 0.73 | 0.58 | 91 | 1008.3 |
| 20260904013026 | 57 | 355 | 2.0 | 5.0 | 0.03 | 0.71 | 0.56 | 91 | 1008.3 |
| 20260904012929 | 57 | 96 | 1.0 | 5.0 | 0.02 | 0.70 | 0.55 | 91 | 1008.3 |
| 20260904012531 | 58 | 72 | 2.0 | 6.0 | 0.01 | 0.69 | 0.54 | 91 | 1008.3 |
| 20260904012432 | 58 | 54 | 2.0 | 6.0 | 0.01 | 0.69 | 0.54 | 91 | 1008.3 |
| 20260904012031 | 58 | 315 | 2.0 | 8.0 | 0.01 | 0.69 | 0.54 | 90 | 1008.3 |
| 20260904011913 | 58 | 321 | 2.0 | 8.0 | 0.01 | 0.69 | 0.54 | 90 | 1008.4 |
| 20260904011515 | 58 | 72 | 2.0 | 8.0 | 0.01 | 0.69 | 0.54 | 89 | 1008.3 |
| 20260904011416 | 58 | 72 | 2.0 | 6.0 | 0.01 | 0.69 | 0.54 | 89 | 1008.3 |
| 20260904011015 | 58 | 111 | 1.0 | 6.0 | 0.01 | 0.69 | 0.54 | 90 | 1008.3 |
| 20260904010917 | 58 | 153 | 2.0 | 6.0 | 0.01 | 0.69 | 0.54 | 90 | 1008.2 |
| 20260904010521 | 58 | 50 | 3.0 | 6.0 | 0.01 | 0.69 | 0.54 | 89 | 1008.2 |
| 20260904010422 | 58 | 37 | 2.0 | 6.0 | 0.01 | 0.69 | 0.54 | 89 | 1008.3 |
| 20260904010032 | 58 | 123 | 2.0 | 6.0 | 0.01 | 0.69 | 0.54 | 90 | 1008.2 |
| 20260904005917 | 58 | 157 | 3.0 | 6.0 | 0.01 | 0.69 | 0.54 | 89 | 1008.3 |
| 20260904005515 | 58 | 158 | 2.0 | 7.0 | 0.01 | 0.69 | 0.54 | 89 | 1008.3 |
| 20260904005420 | 58 | 264 | 2.0 | 7.0 | 0.01 | 0.69 | 0.54 | 89 | 1008.3 |
| 20260904005021 | 58 | 300 | 3.0 | 8.0 | 0.01 | 0.69 | 0.54 | 88 | 1008.2 |
| 20260904004923 | 58 | 82 | 2.0 | 8.0 | 0.01 | 0.69 | 0.54 | 88 | 1008.4 |
| 20260904004527 | 58 | 332 | 1.0 | 8.0 | 0.00 | 0.68 | 0.53 | 88 | 1008.4 |
| 20260904004412 | 58 | 99 | 2.0 | 8.0 | 0.00 | 0.68 | 0.53 | 87 | 1008.4 |
| 20260904004014 | 58 | 259 | 3.0 | 9.0 | 0.00 | 0.68 | 0.53 | 87 | 1008.4 |
| 20260904003917 | 58 | 353 | 3.0 | 9.0 | 0.00 | 0.68 | 0.53 | 87 | 1008.3 |
| 20260904003531 | 58 | 150 | 3.0 | 9.0 | 0.00 | 0.68 | 0.53 | 88 | 1008.2 |
| 20260904003430 | 58 | 319 | 2.0 | 9.0 | 0.01 | 0.68 | 0.53 | 88 | 1008.4 |
| 20260904003031 | 58 | 306 | 4.0 | 8.0 | 0.01 | 0.68 | 0.53 | 89 | 1008.3 |
| 20260904002913 | 58 | 51 | 2.0 | 8.0 | 0.01 | 0.68 | 0.53 | 89 | 1008.4 |
| 20260904002519 | 58 | 89 | 2.0 | 7.0 | 0.02 | 0.68 | 0.53 | 90 | 1008.3 |
| 20260904002419 | 58 | 211 | 1.0 | 5.0 | 0.02 | 0.68 | 0.53 | 90 | 1008.3 |
| 20260904002022 | 58 | 113 | 2.0 | 6.0 | 0.02 | 0.68 | 0.53 | 91 | 1008.2 |
| 20260904001926 | 58 | 263 | 1.0 | 6.0 | 0.02 | 0.68 | 0.53 | 91 | 1008.3 |
| 20260904001528 | 58 | 91 | 2.0 | 6.0 | 0.02 | 0.68 | 0.53 | 90 | 1008.2 |
| 20260904001429 | 58 | 75 | 2.0 | 7.0 | 0.02 | 0.68 | 0.53 | 91 | 1008.3 |
| 20260904001031 | 58 | 179 | 1.0 | 7.0 | 0.02 | 0.68 | 0.53 | 91 | 1008.3 |
| 20260904000913 | 58 | 137 | 1.0 | 7.0 | 0.02 | 0.68 | 0.53 | 91 | 1008.3 |
| 20260904000519 | 58 | 32 | 2.0 | 7.0 | 0.02 | 0.68 | 0.53 | 90 | 1008.3 |
| 20260904000419 | 58 | 317 | 3.0 | 7.0 | 0.02 | 0.68 | 0.53 | 90 | 1008.3 |
| 20260904000033 | 58 | 47 | 2.0 | 7.0 | 0.02 | 0.68 | 0.53 | 91 | 1008.3 |
| 20260903235917 | 58 | 335 | 1.0 | 9.0 | 0.02 | 0.68 | 0.53 | 91 | 1008.3 |
| 20260903235521 | 58 | 282 | 1.0 | 9.0 | 0.02 | 0.68 | 0.53 | 91 | 1008.3 |
| 20260903235424 | 58 | 227 | 1.0 | 9.0 | 0.02 | 0.68 | 0.53 | 91 | 1008.3 |
| 20260903235026 | 58 | 160 | 3.0 | 9.0 | 0.02 | 0.68 | 0.53 | 90 | 1008.5 |
| 20260903234927 | 58 | 302 | 2.0 | 8.0 | 0.02 | 0.68 | 0.53 | 90 | 1008.4 |
| 20260903234524 | 58 | 43 | 2.0 | 8.0 | 0.02 | 0.68 | 0.53 | 90 | 1008.5 |
| 20260903234428 | 58 | 230 | 2.0 | 8.0 | 0.02 | 0.68 | 0.53 | 90 | 1008.5 |
| 20260903234026 | 58 | 96 | 2.0 | 9.0 | 0.02 | 0.68 | 0.53 | 90 | 1008.5 |
| 20260903233913 | 58 | 96 | 1.0 | 9.0 | 0.02 | 0.68 | 0.53 | 89 | 1008.5 |
| 20260903233515 | 58 | 82 | 4.0 | 9.0 | 0.01 | 0.67 | 0.52 | 89 | 1008.6 |
| 20260903233420 | 58 | 288 | 2.0 | 8.0 | 0.01 | 0.67 | 0.52 | 88 | 1008.6 |
| 20260903233019 | 59 | 210 | 2.0 | 16.0 | 0.01 | 0.67 | 0.52 | 87 | 1008.5 |
| 20260903232921 | 59 | 230 | 3.0 | 16.0 | 0.01 | 0.67 | 0.52 | 87 | 1008.5 |
| 20260903232522 | 59 | 96 | 4.0 | 16.0 | 0.00 | 0.66 | 0.51 | 87 | 1008.6 |
| 20260903232424 | 59 | 120 | 3.0 | 16.0 | 0.00 | 0.66 | 0.51 | 88 | 1008.7 |
| 20260903232025 | 59 | 314 | 5.0 | 13.0 | 0.00 | 0.66 | 0.51 | 87 | 1008.5 |
| 20260903231926 | 59 | 162 | 4.0 | 13.0 | 0.00 | 0.66 | 0.51 | 87 | 1008.6 |
| 20260903231530 | 59 | 33 | 4.0 | 9.0 | 0.00 | 0.66 | 0.51 | 87 | 1008.7 |
| 20260903231414 | 59 | 49 | 2.0 | 7.0 | 0.00 | 0.66 | 0.51 | 87 | 1008.7 |
| 20260903231017 | 59 | 272 | 3.0 | 14.0 | 0.00 | 0.66 | 0.51 | 87 | 1008.7 |
| 20260903230920 | 59 | 101 | 3.0 | 14.0 | 0.00 | 0.66 | 0.51 | 86 | 1008.7 |
| 20260903230523 | 59 | 221 | 2.0 | 14.0 | 0.00 | 0.66 | 0.51 | 86 | 1008.6 |
| 20260903230425 | 59 | 325 | 2.0 | 14.0 | 0.00 | 0.66 | 0.51 | 86 | 1008.6 |
| 20260903230017 | 60 | 239 | 2.0 | 12.0 | 0.00 | 0.68 | 0.51 | 88 | 1008.7 |
| 20260903225919 | 60 | 106 | 2.0 | 12.0 | 0.00 | 0.68 | 0.51 | 88 | 1008.7 |
| 20260903225525 | 59 | 262 | 2.0 | 12.0 | 0.00 | 0.68 | 0.51 | 87 | 1008.6 |
| 20260903225427 | 59 | 25 | 3.0 | 12.0 | 0.00 | 0.68 | 0.51 | 88 | 1008.8 |
| 20260903225029 | 59 | 345 | 3.0 | 9.0 | 0.00 | 0.68 | 0.51 | 88 | 1008.7 |
| 20260903224931 | 59 | 21 | 2.0 | 9.0 | 0.00 | 0.68 | 0.51 | 88 | 1008.8 |
| 20260903224533 | 59 | 300 | 3.0 | 10.0 | 0.00 | 0.68 | 0.51 | 88 | 1008.7 |
| 20260903224415 | 59 | 92 | 4.0 | 10.0 | 0.00 | 0.68 | 0.51 | 88 | 1008.7 |
| 20260903224017 | 59 | 28 | 3.0 | 11.0 | 0.00 | 0.68 | 0.51 | 89 | 1008.7 |
| 20260903223919 | 59 | 199 | 4.0 | 11.0 | 0.00 | 0.68 | 0.51 | 88 | 1008.7 |
| 20260903223522 | 59 | 207 | 4.0 | 11.0 | 0.00 | 0.68 | 0.51 | 88 | 1008.8 |
| 20260903223424 | 59 | 233 | 4.0 | 11.0 | 0.00 | 0.68 | 0.51 | 88 | 1008.6 |
| 20260903223027 | 59 | 203 | 2.0 | 7.0 | 0.00 | 0.68 | 0.51 | 89 | 1008.7 |
| 20260903222930 | 59 | 326 | 3.0 | 8.0 | 0.00 | 0.68 | 0.51 | 88 | 1008.8 |
| 20260903222515 | 59 | 109 | 2.0 | 12.0 | 0.00 | 0.68 | 0.51 | 89 | 1008.7 |
| 20260903222418 | 59 | 359 | 3.0 | 12.0 | 0.00 | 0.68 | 0.51 | 89 | 1008.8 |
| 20260903222015 | 59 | 316 | 3.0 | 12.0 | 0.00 | 0.68 | 0.51 | 90 | 1008.7 |
| 20260903221919 | 59 | 51 | 3.0 | 12.0 | 0.00 | 0.68 | 0.51 | 90 | 1008.7 |
| 20260903221517 | 59 | 63 | 3.0 | 12.0 | 0.00 | 0.68 | 0.51 | 90 | 1008.8 |
| 20260903221420 | 59 | 68 | 3.0 | 12.0 | 0.00 | 0.68 | 0.51 | 90 | 1008.8 |
| 20260903221019 | 59 | 54 | 2.0 | 9.0 | 0.00 | 0.68 | 0.51 | 91 | 1008.6 |
| 20260903220919 | 59 | 62 | 3.0 | 9.0 | 0.00 | 0.68 | 0.51 | 90 | 1008.9 |
| 20260903220523 | 59 | 339 | 3.0 | 9.0 | 0.00 | 0.68 | 0.51 | 90 | 1008.8 |
| 20260903220426 | 59 | 73 | 2.0 | 9.0 | 0.00 | 0.68 | 0.51 | 90 | 1008.8 |
| 20260903220023 | 59 | 224 | 3.0 | 9.0 | 0.00 | 0.69 | 0.51 | 90 | 1008.9 |
| 20260903215927 | 59 | 81 | 4.0 | 10.0 | 0.00 | 0.69 | 0.51 | 89 | 1008.8 |
| 20260903215528 | 59 | 290 | 1.0 | 10.0 | 0.00 | 0.69 | 0.51 | 90 | 1008.8 |
| 20260903215429 | 59 | 54 | 2.0 | 10.0 | 0.00 | 0.69 | 0.51 | 90 | 1008.8 |
| 20260903215030 | 60 | 192 | 3.0 | 10.0 | 0.00 | 0.69 | 0.51 | 89 | 1008.7 |
| 20260903214912 | 60 | 314 | 3.0 | 9.0 | 0.00 | 0.69 | 0.51 | 89 | 1008.8 |
| 20260903214514 | 60 | 113 | 2.0 | 13.0 | 0.00 | 0.69 | 0.51 | 89 | 1008.9 |
| 20260903214415 | 60 | 259 | 3.0 | 13.0 | 0.00 | 0.69 | 0.51 | 89 | 1008.9 |
| 20260903214019 | 60 | 97 | 2.0 | 13.0 | 0.00 | 0.69 | 0.51 | 89 | 1009.0 |
| 20260903213920 | 60 | 115 | 3.0 | 13.0 | 0.00 | 0.69 | 0.51 | 88 | 1009.0 |
| 20260903213525 | 60 | 263 | 3.0 | 8.0 | 0.00 | 0.69 | 0.51 | 89 | 1009.0 |
| 20260903213426 | 60 | 58 | 3.0 | 8.0 | 0.00 | 0.69 | 0.51 | 89 | 1008.9 |
| 20260903213031 | 60 | 289 | 3.0 | 12.0 | 0.00 | 0.69 | 0.51 | 88 | 1009.0 |
| 20260903212913 | 60 | 229 | 3.0 | 12.0 | 0.00 | 0.69 | 0.51 | 88 | 1009.0 |
| 20260903212517 | 60 | 92 | 2.0 | 9.0 | 0.01 | 0.69 | 0.51 | 89 | 1008.9 |
| 20260903212420 | 60 | 75 | 2.0 | 9.0 | 0.01 | 0.69 | 0.51 | 89 | 1008.9 |
| 20260903212023 | 60 | 176 | 1.0 | 9.0 | 0.01 | 0.69 | 0.51 | 89 | 1009.0 |
| 20260903211924 | 60 | 206 | 3.0 | 9.0 | 0.01 | 0.69 | 0.51 | 90 | 1008.9 |
| 20260903211527 | 60 | 349 | 1.0 | 8.0 | 0.01 | 0.69 | 0.51 | 90 | 1008.9 |
| 20260903211429 | 60 | 22 | 2.0 | 8.0 | 0.01 | 0.69 | 0.51 | 90 | 1008.8 |
| 20260903211026 | 60 | 53 | 1.0 | 8.0 | 0.01 | 0.69 | 0.51 | 90 | 1009.0 |
| 20260903210930 | 59 | 90 | 2.0 | 8.0 | 0.01 | 0.69 | 0.51 | 89 | 1008.9 |
| 20260903210532 | 60 | 359 | 2.0 | 7.0 | 0.01 | 0.69 | 0.51 | 89 | 1009.0 |
| 20260903210418 | 60 | 282 | 2.0 | 9.0 | 0.01 | 0.69 | 0.51 | 89 | 1009.1 |
| 20260903210017 | 60 | 302 | 3.0 | 11.0 | 0.01 | 0.82 | 0.51 | 89 | 1009.0 |
| 20260903205533 | 60 | 33 | 4.0 | 11.0 | 0.01 | 0.82 | 0.51 | 88 | 1008.9 |
| 20260903205414 | 60 | 328 | 4.0 | 11.0 | 0.01 | 0.82 | 0.51 | 89 | 1008.9 |
| 20260903205017 | 60 | 327 | 2.0 | 9.0 | 0.01 | 0.82 | 0.51 | 90 | 1009.0 |
| 20260903204919 | 60 | 167 | 2.0 | 9.0 | 0.01 | 0.82 | 0.51 | 90 | 1008.9 |
| 20260903204519 | 59 | 92 | 4.0 | 9.0 | 0.01 | 0.82 | 0.51 | 90 | 1008.9 |
| 20260903204419 | 59 | 144 | 3.0 | 9.0 | 0.01 | 0.82 | 0.51 | 90 | 1008.9 |
| 20260903204022 | 59 | 250 | 3.0 | 9.0 | 0.01 | 0.82 | 0.51 | 92 | 1009.0 |
| 20260903203926 | 59 | 87 | 4.0 | 9.0 | 0.01 | 0.82 | 0.51 | 92 | 1008.9 |
| 20260903203531 | 59 | 307 | 3.0 | 9.0 | 0.01 | 0.82 | 0.51 | 91 | 1009.0 |
| 20260903203429 | 59 | 282 | 2.0 | 9.0 | 0.01 | 0.82 | 0.51 | 91 | 1008.9 |
| 20260903203026 | 59 | 37 | 1.0 | 11.0 | 0.01 | 0.82 | 0.51 | 91 | 1008.9 |
| 20260903202927 | 59 | 269 | 1.0 | 11.0 | 0.01 | 0.82 | 0.51 | 91 | 1008.9 |
| 20260903202528 | 59 | 267 | 3.0 | 11.0 | 0.00 | 0.81 | 0.50 | 90 | 1008.9 |
| 20260903202429 | 59 | 321 | 4.0 | 11.0 | 0.00 | 0.81 | 0.50 | 90 | 1009.1 |
| 20260903202029 | 59 | 247 | 3.0 | 7.0 | 0.00 | 0.81 | 0.50 | 92 | 1008.8 |
| 20260903201928 | 59 | 302 | 2.0 | 5.0 | 0.00 | 0.81 | 0.50 | 93 | 1008.9 |
| 20260903201532 | 59 | 78 | 1.0 | 10.0 | 0.00 | 0.81 | 0.50 | 91 | 1009.1 |
| 20260903201414 | 58 | 302 | 2.0 | 10.0 | 0.00 | 0.81 | 0.50 | 91 | 1008.9 |
| 20260903201015 | 59 | 27 | 3.0 | 10.0 | 0.00 | 0.81 | 0.50 | 90 | 1009.0 |
| 20260903200936 | 59 | 351 | 3.0 | 10.0 | 0.00 | 0.81 | 0.50 | 91 | 1009.0 |
| 20260903200534 | 59 | 309 | 1.0 | 5.0 | 0.00 | 0.81 | 0.50 | 94 | 1009.1 |
| 20260903200417 | 58 | 293 | 2.0 | 7.0 | 0.00 | 0.81 | 0.50 | 94 | 1009.2 |
| 20260903200026 | 57 | 249 | 2.0 | 7.0 | 0.00 | 0.90 | 0.50 | 93 | 1009.2 |
| 20260903195928 | 57 | 276 | 1.0 | 7.0 | 0.00 | 0.90 | 0.50 | 93 | 1009.3 |
| 20260903195530 | 57 | 115 | 1.0 | 6.0 | 0.00 | 0.90 | 0.50 | 93 | 1009.2 |
| 20260903195432 | 57 | 115 | 1.0 | 6.0 | 0.00 | 0.90 | 0.50 | 93 | 1009.3 |
| 20260903195017 | 56 | 356 | 1.0 | 9.0 | 0.00 | 0.90 | 0.50 | 94 | 1009.2 |
| 20260903194920 | 56 | 313 | 1.0 | 9.0 | 0.00 | 0.90 | 0.50 | 94 | 1009.2 |
| 20260903194523 | 56 | 281 | 3.0 | 9.0 | 0.00 | 0.90 | 0.50 | 94 | 1009.3 |
| 20260903194425 | 56 | 30 | 2.0 | 8.0 | 0.00 | 0.90 | 0.50 | 94 | 1009.3 |
| 20260903194029 | 56 | 228 | 1.0 | 7.0 | 0.00 | 0.90 | 0.50 | 94 | 1009.3 |
| 20260903193932 | 56 | 16 | 1.0 | 7.0 | 0.00 | 0.90 | 0.50 | 94 | 1009.3 |
| 20260903193517 | 56 | 253 | 2.0 | 8.0 | 0.00 | 0.90 | 0.50 | 93 | 1009.3 |
| 20260903193415 | 56 | 85 | 2.0 | 8.0 | 0.00 | 0.90 | 0.50 | 94 | 1009.3 |
| 20260903193017 | 56 | 235 | 2.0 | 8.0 | 0.01 | 0.90 | 0.50 | 94 | 1009.4 |
| 20260903192916 | 56 | 73 | 1.0 | 8.0 | 0.01 | 0.90 | 0.50 | 94 | 1009.4 |
| 20260903192519 | 56 | 281 | 1.0 | 5.0 | 0.01 | 0.90 | 0.50 | 94 | 1009.5 |
| 20260903192419 | 56 | 321 | 2.0 | 5.0 | 0.01 | 0.90 | 0.50 | 94 | 1009.5 |
| 20260903192021 | 56 | 329 | 1.0 | 10.0 | 0.01 | 0.90 | 0.50 | 94 | 1009.5 |
| 20260903191920 | 56 | 304 | 1.0 | 10.0 | 0.01 | 0.90 | 0.50 | 94 | 1009.5 |
| 20260903191521 | 56 | 96 | 2.0 | 10.0 | 0.01 | 0.90 | 0.50 | 94 | 1009.5 |
| 20260903191421 | 56 | 304 | 1.0 | 6.0 | 0.01 | 0.90 | 0.50 | 94 | 1009.4 |
| 20260903191023 | 55 | 118 | 2.0 | 6.0 | 0.01 | 0.90 | 0.50 | 94 | 1009.5 |
| 20260903190923 | 55 | 312 | 2.0 | 6.0 | 0.01 | 0.90 | 0.50 | 94 | 1009.4 |
| 20260903190524 | 55 | 40 | 1.0 | 5.0 | 0.01 | 0.90 | 0.50 | 95 | 1009.5 |
| 20260903190417 | 55 | 21 | 2.0 | 7.0 | 0.01 | 0.90 | 0.50 | 95 | 1009.6 |
| 20260903190026 | 55 | 117 | 2.0 | 7.0 | 0.01 | 1.05 | 0.50 | 94 | 1009.5 |
| 20260903185930 | 55 | 63 | 2.0 | 9.0 | 0.01 | 1.05 | 0.50 | 94 | 1009.5 |
| 20260903185527 | 55 | 53 | 2.0 | 9.0 | 0.01 | 1.05 | 0.50 | 94 | 1009.5 |
| 20260903185427 | 55 | 56 | 2.0 | 9.0 | 0.01 | 1.05 | 0.50 | 94 | 1009.4 |
| 20260903185027 | 55 | 57 | 1.0 | 6.0 | 0.01 | 1.05 | 0.50 | 94 | 1009.5 |
| 20260903184928 | 55 | 343 | 2.0 | 6.0 | 0.01 | 1.05 | 0.50 | 95 | 1009.4 |
| 20260903184529 | 55 | 326 | 2.0 | 7.0 | 0.01 | 1.05 | 0.50 | 94 | 1009.6 |
| 20260903184429 | 55 | 72 | 1.0 | 7.0 | 0.01 | 1.05 | 0.50 | 94 | 1009.7 |
| 20260903184030 | 55 | 105 | 1.0 | 7.0 | 0.01 | 1.05 | 0.50 | 94 | 1009.7 |
| 20260903183931 | 55 | 64 | 1.0 | 7.0 | 0.01 | 1.05 | 0.50 | 94 | 1009.8 |
| 20260903183534 | 55 | 68 | 2.0 | 7.0 | 0.01 | 1.05 | 0.50 | 93 | 1009.7 |
| 20260903183416 | 55 | 44 | 2.0 | 7.0 | 0.01 | 1.05 | 0.50 | 93 | 1009.8 |
| 20260903183020 | 55 | 316 | 2.0 | 7.0 | 0.00 | 1.04 | 0.49 | 94 | 1009.8 |
| 20260903182923 | 55 | 269 | 2.0 | 7.0 | 0.00 | 1.04 | 0.49 | 94 | 1009.8 |
| 20260903182527 | 55 | 314 | 2.0 | 7.0 | 0.00 | 1.04 | 0.49 | 94 | 1009.7 |
| 20260903182431 | 55 | 79 | 2.0 | 7.0 | 0.00 | 1.04 | 0.49 | 94 | 1009.6 |
| 20260903182033 | 55 | 23 | 1.0 | 7.0 | 0.00 | 1.04 | 0.49 | 94 | 1009.6 |
| 20260903181914 | 55 | 122 | 1.0 | 7.0 | 0.00 | 1.04 | 0.49 | 94 | 1009.7 |
| 20260903181517 | 55 | 50 | 2.0 | 8.0 | 0.02 | 1.04 | 0.49 | 94 | 1009.6 |
| 20260903181418 | 55 | 258 | 1.0 | 8.0 | 0.02 | 1.04 | 0.49 | 94 | 1009.5 |
| 20260903181019 | 55 | 105 | 2.0 | 8.0 | 0.03 | 1.04 | 0.49 | 94 | 1009.6 |
| 20260903180918 | 55 | 358 | 3.0 | 8.0 | 0.04 | 1.04 | 0.49 | 94 | 1009.6 |
| 20260903180521 | 55 | 75 | 3.0 | 6.0 | 0.07 | 1.04 | 0.49 | 94 | 1009.7 |
| 20260903180419 | 56 | 41 | 2.0 | 6.0 | 0.09 | 1.04 | 0.49 | 94 | 1009.7 |
| 20260903180032 | 56 | 293 | 1.0 | 6.0 | 0.15 | 1.13 | 0.49 | 94 | 1009.6 |
| 20260903175913 | 56 | 309 | 2.0 | 9.0 | 0.15 | 1.13 | 0.49 | 94 | 1009.5 |
| 20260903175518 | 56 | 240 | 3.0 | 9.0 | 0.17 | 1.13 | 0.49 | 95 | 1009.5 |
| 20260903175419 | 56 | 186 | 2.0 | 9.0 | 0.17 | 1.13 | 0.49 | 95 | 1009.5 |
| 20260903175017 | 56 | 50 | 2.0 | 7.0 | 0.17 | 1.13 | 0.49 | 95 | 1009.5 |
| 20260903174920 | 56 | 202 | 2.0 | 6.0 | 0.17 | 1.13 | 0.49 | 95 | 1009.5 |
| 20260903174519 | 56 | 50 | 1.0 | 8.0 | 0.17 | 1.13 | 0.49 | 95 | 1009.5 |
| 20260903174421 | 56 | 99 | 2.0 | 8.0 | 0.17 | 1.13 | 0.49 | 95 | 1009.5 |
| 20260903174018 | 56 | 267 | 1.0 | 8.0 | 0.17 | 1.13 | 0.49 | 95 | 1009.6 |
| 20260903173919 | 56 | 12 | 1.0 | 8.0 | 0.17 | 1.13 | 0.49 | 95 | 1009.5 |
| 20260903173523 | 56 | 79 | 2.0 | 6.0 | 0.17 | 1.13 | 0.49 | 96 | 1009.6 |
| 20260903173424 | 56 | 222 | 2.0 | 6.0 | 0.17 | 1.13 | 0.49 | 96 | 1009.6 |
| 20260903173028 | 55 | 91 | 1.0 | 3.0 | 0.18 | 1.13 | 0.49 | 96 | 1009.7 |
| 20260903172930 | 55 | 276 | 1.0 | 3.0 | 0.18 | 1.13 | 0.49 | 95 | 1009.7 |
| 20260903172533 | 55 | 23 | 1.0 | 3.0 | 0.19 | 1.13 | 0.49 | 95 | 1009.7 |
| 20260903172413 | 54 | 123 | 1.0 | 3.0 | 0.19 | 1.13 | 0.49 | 95 | 1009.7 |
| 20260903172017 | 54 | 84 | 1.0 | 7.0 | 0.19 | 1.13 | 0.49 | 94 | 1009.8 |
| 20260903171917 | 54 | 89 | 1.0 | 7.0 | 0.19 | 1.13 | 0.49 | 94 | 1009.7 |
| 20260903171519 | 54 | 296 | 2.0 | 7.0 | 0.17 | 1.11 | 0.47 | 93 | 1009.7 |
| 20260903171422 | 54 | 105 | 2.0 | 7.0 | 0.17 | 1.11 | 0.47 | 93 | 1009.7 |
| 20260903171026 | 55 | 283 | 1.0 | 6.0 | 0.16 | 1.10 | 0.46 | 93 | 1009.7 |
| 20260903170927 | 55 | 41 | 1.0 | 6.0 | 0.15 | 1.09 | 0.45 | 93 | 1009.7 |
| 20260903170531 | 56 | 219 | 3.0 | 7.0 | 0.10 | 1.04 | 0.40 | 93 | 1009.7 |
| 20260903170430 | 56 | 349 | 3.0 | 7.0 | 0.08 | 1.02 | 0.38 | 93 | 1009.6 |
| 20260903170025 | 56 | 70 | 1.0 | 8.0 | 0.04 | 1.16 | 0.34 | 94 | 1009.5 |
| 20260903165926 | 56 | 334 | 1.0 | 8.0 | 0.04 | 1.16 | 0.34 | 94 | 1009.4 |
| 20260903165528 | 56 | 5 | 2.0 | 8.0 | 0.02 | 1.14 | 0.32 | 94 | 1009.5 |
| 20260903165430 | 56 | 54 | 2.0 | 8.0 | 0.02 | 1.14 | 0.32 | 94 | 1009.5 |
| 20260903165030 | 57 | 58 | 2.0 | 9.0 | 0.02 | 1.14 | 0.32 | 94 | 1009.5 |
| 20260903164912 | 57 | 232 | 3.0 | 9.0 | 0.02 | 1.14 | 0.32 | 94 | 1009.4 |
| 20260903164516 | 57 | 349 | 2.0 | 10.0 | 0.02 | 1.14 | 0.32 | 94 | 1009.4 |
| 20260903164419 | 57 | 72 | 2.0 | 10.0 | 0.02 | 1.14 | 0.32 | 94 | 1009.4 |
| 20260903164021 | 57 | 30 | 3.0 | 10.0 | 0.02 | 1.14 | 0.32 | 94 | 1009.4 |
| 20260903163923 | 57 | 277 | 3.0 | 10.0 | 0.02 | 1.14 | 0.32 | 94 | 1009.4 |
| 20260903163522 | 57 | 106 | 3.0 | 10.0 | 0.02 | 1.14 | 0.32 | 94 | 1009.4 |
| 20260903163425 | 57 | 109 | 2.0 | 7.0 | 0.02 | 1.14 | 0.32 | 94 | 1009.3 |
| 20260903163022 | 57 | 347 | 2.0 | 9.0 | 0.01 | 1.13 | 0.31 | 94 | 1009.3 |
| 20260903162928 | 57 | 51 | 1.0 | 9.0 | 0.01 | 1.13 | 0.31 | 94 | 1009.3 |
| 20260903162526 | 57 | 165 | 3.0 | 9.0 | 0.00 | 1.12 | 0.30 | 94 | 1009.3 |
| 20260903162428 | 57 | 307 | 3.0 | 9.0 | 0.00 | 1.12 | 0.30 | 94 | 1009.3 |
| 20260903162031 | 57 | 11 | 3.0 | 12.0 | 0.00 | 1.12 | 0.30 | 94 | 1009.2 |
| 20260903161914 | 57 | 259 | 2.0 | 12.0 | 0.00 | 1.12 | 0.30 | 94 | 1009.2 |
| 20260903161518 | 57 | 43 | 4.0 | 12.0 | 0.00 | 1.12 | 0.30 | 94 | 1009.4 |
| 20260903161420 | 57 | 94 | 3.0 | 12.0 | 0.00 | 1.12 | 0.30 | 94 | 1009.4 |
| 20260903161021 | 57 | 33 | 3.0 | 8.0 | 0.00 | 1.12 | 0.30 | 94 | 1009.3 |
| 20260903160922 | 57 | 309 | 3.0 | 8.0 | 0.00 | 1.12 | 0.30 | 94 | 1009.2 |
| 20260903160524 | 57 | 310 | 3.0 | 9.0 | 0.00 | 1.12 | 0.30 | 95 | 1009.4 |
| 20260903160425 | 57 | 335 | 3.0 | 9.0 | 0.00 | 1.12 | 0.30 | 95 | 1009.5 |
| 20260903160020 | 57 | 184 | 2.0 | 9.0 | 0.00 | 1.19 | 0.30 | 94 | 1009.4 |
| 20260903155923 | 57 | 70 | 3.0 | 9.0 | 0.00 | 1.19 | 0.30 | 94 | 1009.3 |
| 20260903155526 | 57 | 238 | 2.0 | 12.0 | 0.00 | 1.19 | 0.30 | 94 | 1009.3 |
| 20260903155428 | 57 | 272 | 2.0 | 12.0 | 0.00 | 1.19 | 0.30 | 94 | 1009.4 |
| 20260903155033 | 57 | 268 | 4.0 | 12.0 | 0.00 | 1.19 | 0.30 | 94 | 1009.4 |
| 20260903154915 | 57 | 85 | 3.0 | 12.0 | 0.00 | 1.19 | 0.30 | 94 | 1009.3 |
| 20260903154517 | 57 | 61 | 2.0 | 8.0 | 0.00 | 1.19 | 0.30 | 94 | 1009.4 |
| 20260903154418 | 57 | 256 | 2.0 | 8.0 | 0.00 | 1.19 | 0.30 | 94 | 1009.5 |
| 20260903154020 | 57 | 39 | 3.0 | 8.0 | 0.00 | 1.19 | 0.30 | 94 | 1009.3 |
| 20260903153919 | 56 | 40 | 2.0 | 7.0 | 0.00 | 1.19 | 0.30 | 94 | 1009.5 |
| 20260903153522 | 56 | 60 | 3.0 | 9.0 | 0.00 | 1.19 | 0.30 | 94 | 1009.4 |
| 20260903153421 | 56 | 77 | 3.0 | 9.0 | 0.00 | 1.19 | 0.30 | 94 | 1009.4 |
| 20260903153024 | 56 | 95 | 3.0 | 13.0 | 0.00 | 1.19 | 0.30 | 94 | 1009.3 |
| 20260903152927 | 56 | 84 | 2.0 | 13.0 | 0.00 | 1.19 | 0.30 | 95 | 1009.4 |
| 20260903152527 | 56 | 53 | 2.0 | 13.0 | 0.00 | 1.19 | 0.30 | 94 | 1009.3 |
| 20260903152414 | 56 | 249 | 1.0 | 13.0 | 0.00 | 1.19 | 0.30 | 94 | 1009.3 |
| 20260903152015 | 56 | 330 | 1.0 | 6.0 | 0.01 | 1.19 | 0.30 | 95 | 1009.4 |
| 20260903151919 | 56 | 19 | 1.0 | 6.0 | 0.01 | 1.19 | 0.30 | 94 | 1009.4 |
| 20260903151518 | 56 | 198 | 2.0 | 9.0 | 0.01 | 1.19 | 0.30 | 95 | 1009.2 |
| 20260903151422 | 56 | 102 | 2.0 | 9.0 | 0.01 | 1.19 | 0.30 | 95 | 1009.2 |
| 20260903151023 | 56 | 281 | 3.0 | 9.0 | 0.01 | 1.19 | 0.30 | 95 | 1009.2 |
| 20260903150924 | 56 | 323 | 2.0 | 9.0 | 0.01 | 1.19 | 0.30 | 95 | 1009.3 |
| 20260903150527 | 56 | 295 | 2.0 | 11.0 | 0.01 | 1.19 | 0.30 | 95 | 1009.3 |
| 20260903150428 | 56 | 51 | 3.0 | 11.0 | 0.01 | 1.19 | 0.30 | 95 | 1009.2 |
| 20260903150023 | 57 | 290 | 2.0 | 11.0 | 0.01 | 1.25 | 0.30 | 95 | 1009.3 |
| 20260903145924 | 57 | 19 | 3.0 | 11.0 | 0.01 | 1.25 | 0.30 | 95 | 1009.2 |
| 20260903145529 | 57 | 66 | 3.0 | 8.0 | 0.02 | 1.25 | 0.30 | 95 | 1009.1 |
| 20260903145431 | 57 | 125 | 3.0 | 8.0 | 0.02 | 1.25 | 0.30 | 95 | 1009.1 |
| 20260903145015 | 57 | 284 | 2.0 | 8.0 | 0.02 | 1.25 | 0.30 | 96 | 1009.1 |
| 20260903144915 | 57 | 90 | 3.0 | 8.0 | 0.02 | 1.25 | 0.30 | 96 | 1009.1 |
| 20260903144519 | 57 | 65 | 4.0 | 8.0 | 0.03 | 1.25 | 0.30 | 96 | 1009.1 |
| 20260903144421 | 57 | 27 | 4.0 | 7.0 | 0.03 | 1.25 | 0.30 | 95 | 1009.0 |
| 20260903144026 | 57 | 288 | 3.0 | 8.0 | 0.03 | 1.25 | 0.30 | 95 | 1009.0 |
| 20260903143929 | 57 | 4 | 3.0 | 9.0 | 0.03 | 1.25 | 0.30 | 95 | 1009.2 |
| 20260903143518 | 57 | 134 | 3.0 | 9.0 | 0.03 | 1.25 | 0.30 | 95 | 1009.1 |
| 20260903143419 | 57 | 32 | 4.0 | 11.0 | 0.03 | 1.25 | 0.30 | 95 | 1009.1 |
| 20260903143025 | 57 | 70 | 2.0 | 12.0 | 0.03 | 1.25 | 0.30 | 95 | 1008.9 |
| 20260903142925 | 57 | 80 | 3.0 | 12.0 | 0.03 | 1.25 | 0.30 | 95 | 1008.9 |
| 20260903142531 | 57 | 302 | 4.0 | 12.0 | 0.03 | 1.25 | 0.30 | 95 | 1009.1 |
| 20260903142412 | 57 | 94 | 3.0 | 8.0 | 0.03 | 1.25 | 0.30 | 95 | 1009.1 |
| 20260903142018 | 57 | 124 | 3.0 | 7.0 | 0.02 | 1.24 | 0.29 | 96 | 1009.0 |
| 20260903141920 | 57 | 323 | 3.0 | 7.0 | 0.02 | 1.24 | 0.29 | 96 | 1009.0 |
| 20260903141524 | 57 | 327 | 2.0 | 6.0 | 0.02 | 1.24 | 0.29 | 95 | 1009.2 |
| 20260903141425 | 57 | 12 | 1.0 | 6.0 | 0.02 | 1.24 | 0.29 | 95 | 1009.1 |
| 20260903141029 | 57 | 332 | 2.0 | 8.0 | 0.02 | 1.24 | 0.29 | 95 | 1009.1 |
| 20260903140931 | 57 | 150 | 2.0 | 8.0 | 0.02 | 1.24 | 0.29 | 95 | 1009.0 |
| 20260903140519 | 57 | 167 | 2.0 | 8.0 | 0.02 | 1.24 | 0.29 | 95 | 1009.0 |
| 20260903140419 | 57 | 57 | 1.0 | 8.0 | 0.02 | 1.24 | 0.29 | 96 | 1009.0 |
| 20260903140015 | 57 | 333 | 2.0 | 8.0 | 0.02 | 1.24 | 0.29 | 95 | 1009.1 |
| 20260903135918 | 57 | 194 | 2.0 | 8.0 | 0.02 | 1.24 | 0.29 | 95 | 1009.0 |
| 20260903135520 | 56 | 18 | 2.0 | 9.0 | 0.01 | 1.23 | 0.28 | 95 | 1009.0 |
| 20260903135426 | 56 | 35 | 2.0 | 9.0 | 0.01 | 1.23 | 0.28 | 95 | 1009.0 |
| 20260903135027 | 56 | 12 | 1.0 | 9.0 | 0.05 | 1.23 | 0.28 | 95 | 1009.0 |
| 20260903134930 | 56 | 47 | 1.0 | 9.0 | 0.05 | 1.23 | 0.28 | 95 | 1009.0 |
| 20260903134531 | 56 | 68 | 2.0 | 10.0 | 0.07 | 1.22 | 0.27 | 95 | 1009.0 |
| 20260903134416 | 56 | 13 | 2.0 | 10.0 | 0.07 | 1.22 | 0.27 | 95 | 1009.0 |
| 20260903134019 | 56 | 86 | 2.0 | 10.0 | 0.07 | 1.22 | 0.27 | 95 | 1008.9 |
| 20260903133918 | 56 | 151 | 1.0 | 8.0 | 0.07 | 1.22 | 0.27 | 95 | 1008.9 |
| 20260903133523 | 56 | 320 | 2.0 | 8.0 | 0.07 | 1.22 | 0.27 | 95 | 1009.0 |
| 20260903133423 | 56 | 266 | 3.0 | 8.0 | 0.07 | 1.22 | 0.27 | 95 | 1009.0 |
| 20260903133028 | 56 | 96 | 2.0 | 10.0 | 0.07 | 1.22 | 0.27 | 95 | 1009.0 |
| 20260903132930 | 56 | 239 | 2.0 | 10.0 | 0.07 | 1.22 | 0.27 | 95 | 1009.0 |
| 20260903132518 | 56 | 60 | 3.0 | 11.0 | 0.07 | 1.22 | 0.27 | 95 | 1009.0 |
| 20260903132421 | 56 | 281 | 2.0 | 11.0 | 0.07 | 1.22 | 0.27 | 95 | 1009.0 |
| 20260903132028 | 56 | 323 | 3.0 | 11.0 | 0.07 | 1.22 | 0.27 | 95 | 1009.0 |
| 20260903131931 | 56 | 290 | 3.0 | 8.0 | 0.07 | 1.22 | 0.27 | 96 | 1008.9 |
| 20260903131518 | 56 | 146 | 3.0 | 7.0 | 0.07 | 1.22 | 0.27 | 96 | 1008.9 |
| 20260903131418 | 56 | 86 | 3.0 | 7.0 | 0.07 | 1.22 | 0.27 | 96 | 1009.0 |
| 20260903131023 | 56 | 41 | 2.0 | 7.0 | 0.07 | 1.22 | 0.27 | 96 | 1009.0 |
| 20260903130925 | 56 | 303 | 2.0 | 7.0 | 0.07 | 1.22 | 0.27 | 96 | 1009.0 |
| 20260903130531 | 56 | 19 | 2.0 | 7.0 | 0.07 | 1.22 | 0.27 | 96 | 1008.9 |
| 20260903130412 | 56 | 266 | 2.0 | 7.0 | 0.07 | 1.22 | 0.27 | 96 | 1009.0 |
| 20260903130028 | 56 | 112 | 2.0 | 7.0 | 0.07 | 1.22 | 0.27 | 96 | 1009.0 |
| 20260903125931 | 56 | 301 | 2.0 | 7.0 | 0.07 | 1.22 | 0.27 | 96 | 1009.0 |
| 20260903125519 | 56 | 101 | 2.0 | 7.0 | 0.07 | 1.22 | 0.27 | 96 | 1009.0 |
| 20260903125418 | 56 | 309 | 3.0 | 7.0 | 0.07 | 1.22 | 0.27 | 95 | 1009.1 |
| 20260903125020 | 56 | 9 | 4.0 | 7.0 | 0.04 | 1.18 | 0.23 | 96 | 1009.1 |
| 20260903124922 | 56 | 245 | 2.0 | 6.0 | 0.04 | 1.18 | 0.23 | 96 | 1009.1 |
| 20260903124527 | 55 | 243 | 2.0 | 5.0 | 0.01 | 1.15 | 0.20 | 96 | 1009.2 |
| 20260903124430 | 55 | 52 | 2.0 | 7.0 | 0.01 | 1.15 | 0.20 | 96 | 1009.1 |
| 20260903124015 | 55 | 235 | 1.0 | 8.0 | 0.02 | 1.15 | 0.20 | 96 | 1009.2 |
| 20260903123915 | 55 | 208 | 2.0 | 8.0 | 0.02 | 1.15 | 0.20 | 96 | 1009.2 |
| 20260903123524 | 55 | 18 | 2.0 | 8.0 | 0.02 | 1.15 | 0.20 | 95 | 1009.2 |
| 20260903123426 | 55 | 352 | 2.0 | 8.0 | 0.02 | 1.15 | 0.20 | 95 | 1009.3 |
| 20260903123028 | 55 | 338 | 1.0 | 8.0 | 0.02 | 1.15 | 0.20 | 95 | 1009.2 |
| 20260903122913 | 55 | 1 | 2.0 | 8.0 | 0.02 | 1.15 | 0.20 | 95 | 1009.3 |
| 20260903122514 | 55 | 68 | 3.0 | 8.0 | 0.02 | 1.15 | 0.20 | 95 | 1009.2 |
| 20260903122420 | 55 | 112 | 2.0 | 7.0 | 0.02 | 1.15 | 0.20 | 95 | 1009.2 |
| 20260903122024 | 55 | 359 | 1.0 | 7.0 | 0.03 | 1.15 | 0.20 | 95 | 1009.2 |
| 20260903121931 | 55 | 297 | 2.0 | 7.0 | 0.03 | 1.15 | 0.20 | 95 | 1009.3 |
| 20260903121526 | 55 | 75 | 3.0 | 7.0 | 0.03 | 1.15 | 0.20 | 95 | 1009.3 |
| 20260903121412 | 55 | 258 | 2.0 | 6.0 | 0.03 | 1.15 | 0.20 | 95 | 1009.3 |
| 20260903121020 | 55 | 245 | 2.0 | 6.0 | 0.03 | 1.15 | 0.20 | 95 | 1009.3 |
| 20260903120921 | 55 | 84 | 1.0 | 5.0 | 0.03 | 1.15 | 0.20 | 95 | 1009.4 |
| 20260903120529 | 55 | 42 | 1.0 | 8.0 | 0.03 | 1.15 | 0.20 | 95 | 1009.4 |
| 20260903120429 | 55 | 57 | 1.0 | 8.0 | 0.04 | 1.15 | 0.20 | 95 | 1009.4 |
| 20260903120026 | 56 | 146 | 3.0 | 8.0 | 0.06 | 1.15 | 0.20 | 95 | 1009.5 |
| 20260903115929 | 56 | 359 | 2.0 | 6.0 | 0.06 | 1.15 | 0.20 | 95 | 1009.5 |
| 20260903115516 | 56 | 67 | 1.0 | 16.0 | 0.09 | 1.15 | 0.20 | 95 | 1009.5 |
| 20260903115418 | 56 | 42 | 2.0 | 16.0 | 0.10 | 1.15 | 0.20 | 95 | 1009.7 |
| 20260903115024 | 56 | 208 | 3.0 | 16.0 | 0.11 | 1.14 | 0.19 | 95 | 1009.6 |
| 20260903114926 | 56 | 41 | 4.0 | 16.0 | 0.12 | 1.14 | 0.19 | 95 | 1009.6 |
| 20260903114533 | 56 | 62 | 3.0 | 9.0 | 0.14 | 1.14 | 0.19 | 95 | 1009.7 |
| 20260903114414 | 56 | 317 | 2.0 | 11.0 | 0.14 | 1.14 | 0.19 | 95 | 1009.6 |
| 20260903114020 | 56 | 28 | 3.0 | 11.0 | 0.14 | 1.13 | 0.18 | 95 | 1009.7 |
| 20260903113921 | 56 | 281 | 3.0 | 11.0 | 0.15 | 1.13 | 0.18 | 95 | 1009.7 |
| 20260903113527 | 56 | 282 | 1.0 | 8.0 | 0.16 | 1.13 | 0.18 | 95 | 1009.8 |
| 20260903113427 | 56 | 119 | 2.0 | 8.0 | 0.17 | 1.13 | 0.18 | 95 | 1009.7 |
| 20260903113031 | 56 | 64 | 1.0 | 10.0 | 0.18 | 1.13 | 0.18 | 95 | 1009.7 |
| 20260903112913 | 56 | 16 | 3.0 | 10.0 | 0.18 | 1.13 | 0.18 | 95 | 1009.8 |
| 20260903112521 | 56 | 146 | 2.0 | 10.0 | 0.18 | 1.13 | 0.18 | 95 | 1009.7 |
| 20260903112424 | 56 | 302 | 3.0 | 10.0 | 0.18 | 1.13 | 0.18 | 95 | 1009.7 |
| 20260903112031 | 56 | 74 | 2.0 | 7.0 | 0.17 | 1.12 | 0.17 | 95 | 1009.7 |
| 20260903111913 | 56 | 354 | 2.0 | 8.0 | 0.17 | 1.12 | 0.17 | 95 | 1009.5 |
| 20260903111520 | 56 | 199 | 3.0 | 11.0 | 0.17 | 1.12 | 0.17 | 95 | 1009.5 |
| 20260903111422 | 56 | 286 | 4.0 | 11.0 | 0.17 | 1.12 | 0.17 | 95 | 1009.7 |
| 20260903111028 | 56 | 269 | 3.0 | 11.0 | 0.17 | 1.12 | 0.17 | 95 | 1009.7 |
| 20260903110931 | 56 | 101 | 3.0 | 11.0 | 0.17 | 1.12 | 0.17 | 95 | 1009.7 |
| 20260903110518 | 56 | 276 | 2.0 | 6.0 | 0.16 | 1.11 | 0.16 | 95 | 1009.6 |
| 20260903110418 | 56 | 293 | 2.0 | 6.0 | 0.16 | 1.11 | 0.16 | 95 | 1009.6 |
| 20260903110016 | 56 | 115 | 2.0 | 5.0 | 0.14 | 1.09 | 0.14 | 95 | 1009.7 |
| 20260903105918 | 56 | 103 | 1.0 | 7.0 | 0.14 | 1.09 | 0.14 | 95 | 1009.5 |
| 20260903105519 | 56 | 20 | 2.0 | 9.0 | 0.11 | 1.06 | 0.11 | 95 | 1009.7 |
| 20260903105425 | 56 | 310 | 2.0 | 9.0 | 0.10 | 1.05 | 0.10 | 95 | 1009.7 |
| 20260903105027 | 56 | 164 | 3.0 | 9.0 | 0.07 | 1.02 | 0.07 | 95 | 1009.8 |
| 20260903104913 | 57 | 167 | 3.0 | 13.0 | 0.06 | 1.01 | 0.06 | 95 | 1009.7 |
| 20260903104515 | 57 | 38 | 3.0 | 13.0 | 0.05 | 1.00 | 0.05 | 95 | 1009.7 |
| 20260903104420 | 57 | 95 | 3.0 | 13.0 | 0.05 | 1.00 | 0.05 | 95 | 1009.7 |
| 20260903104022 | 57 | 312 | 3.0 | 12.0 | 0.03 | 0.98 | 0.03 | 95 | 1009.7 |
| 20260903103924 | 57 | 274 | 3.0 | 12.0 | 0.03 | 0.98 | 0.03 | 95 | 1009.8 |
| 20260903103532 | 57 | 48 | 2.0 | 11.0 | 0.01 | 0.96 | 0.01 | 95 | 1009.8 |
| 20260903103412 | 57 | 91 | 2.0 | 11.0 | 0.00 | 0.95 | 0.00 | 95 | 1009.7 |
| 20260903103019 | 57 | 298 | 3.0 | 9.0 | 0.00 | 0.95 | 0.00 | 95 | 1009.7 |
| 20260903102920 | 57 | 49 | 4.0 | 9.0 | 0.00 | 0.95 | 0.00 | 95 | 1009.6 |
| 20260903102526 | 57 | 225 | 4.0 | 9.0 | 0.00 | 0.95 | 0.00 | 95 | 1009.6 |
| 20260903102428 | 57 | 57 | 3.0 | 9.0 | 0.00 | 0.95 | 0.00 | 95 | 1009.6 |
| 20260903102033 | 57 | 52 | 3.0 | 11.0 | 0.00 | 0.95 | 0.00 | 95 | 1009.6 |
| 20260903101916 | 57 | 87 | 3.0 | 11.0 | 0.00 | 0.95 | 0.00 | 95 | 1009.7 |
| 20260903101523 | 57 | 203 | 3.0 | 11.0 | 0.00 | 0.95 | 0.00 | 95 | 1009.7 |
| 20260903101425 | 57 | 297 | 1.0 | 11.0 | 0.00 | 0.95 | 0.00 | 95 | 1009.7 |
| 20260903101014 | 57 | 335 | 3.0 | 11.0 | 0.00 | 0.95 | 0.00 | 95 | 1009.7 |
| 20260903100916 | 57 | 63 | 2.0 | 9.0 | 0.00 | 0.95 | 0.00 | 95 | 1009.7 |
| 20260903100521 | 57 | 109 | 2.0 | 9.0 | 0.00 | 0.95 | 0.00 | 95 | 1009.7 |
| 20260903100420 | 57 | 124 | 2.0 | 9.0 | 0.00 | 0.95 | 0.00 | 95 | 1009.7 |
| 20260903100033 | 57 | 247 | 2.0 | 11.0 | 0.00 | 0.95 | 0.00 | 95 | 1009.8 |
| 20260903095914 | 57 | 289 | 2.0 | 11.0 | 0.00 | 0.95 | 0.00 | 95 | 1009.8 |
| 20260903095520 | 57 | 151 | 3.0 | 11.0 | 0.00 | 0.95 | 0.00 | 94 | 1009.7 |
| 20260903095422 | 57 | 72 | 5.0 | 11.0 | 0.00 | 0.95 | 0.00 | 95 | 1009.6 |
| 20260903095027 | 57 | 39 | 2.0 | 10.0 | 0.00 | 0.95 | 0.00 | 95 | 1009.6 |
| 20260903094928 | 57 | 309 | 2.0 | 10.0 | 0.00 | 0.95 | 0.00 | 94 | 1009.7 |
| 20260903094515 | 57 | 94 | 4.0 | 10.0 | 0.00 | 0.95 | 0.00 | 95 | 1009.7 |
| 20260903094416 | 57 | 82 | 3.0 | 11.0 | 0.00 | 0.95 | 0.00 | 95 | 1009.8 |
| 20260903094021 | 57 | 349 | 3.0 | 11.0 | 0.00 | 0.95 | 0.00 | 95 | 1009.8 |
| 20260903093923 | 57 | 44 | 3.0 | 11.0 | 0.00 | 0.95 | 0.00 | 95 | 1009.8 |
| 20260903093530 | 57 | 270 | 3.0 | 10.0 | 0.00 | 0.95 | 0.00 | 95 | 1009.9 |
| 20260903093431 | 57 | 240 | 3.0 | 10.0 | 0.00 | 0.95 | 0.00 | 95 | 1009.7 |
| 20260903093018 | 57 | 263 | 3.0 | 11.0 | 0.00 | 0.95 | 0.00 | 95 | 1009.8 |
| 20260903092918 | 57 | 227 | 3.0 | 11.0 | 0.00 | 0.95 | 0.00 | 95 | 1009.9 |
| 20260903092520 | 57 | 313 | 4.0 | 16.0 | 0.00 | 0.95 | 0.00 | 95 | 1009.9 |
| 20260903092426 | 57 | 293 | 2.0 | 16.0 | 0.00 | 0.95 | 0.00 | 95 | 1009.8 |
| 20260903092028 | 57 | 329 | 5.0 | 16.0 | 0.00 | 0.95 | 0.00 | 95 | 1009.8 |
| 20260903091914 | 57 | 53 | 5.0 | 15.0 | 0.00 | 0.95 | 0.00 | 95 | 1009.9 |
| 20260903091516 | 57 | 74 | 3.0 | 12.0 | 0.00 | 0.95 | 0.00 | 95 | 1009.8 |
| 20260903091422 | 57 | 293 | 4.0 | 12.0 | 0.00 | 0.95 | 0.00 | 95 | 1009.8 |
| 20260903091024 | 57 | 57 | 2.0 | 7.0 | 0.00 | 0.95 | 0.00 | 95 | 1009.8 |
| 20260903090926 | 57 | 184 | 2.0 | 7.0 | 0.00 | 0.95 | 0.00 | 95 | 1009.8 |
| 20260903090533 | 56 | 274 | 2.0 | 7.0 | 0.00 | 0.95 | 0.00 | 95 | 1010.0 |
| 20260903090413 | 57 | 40 | 2.0 | 7.0 | 0.00 | 0.95 | 0.00 | 95 | 1009.9 |
| 20260903090030 | 56 | 197 | 3.0 | 6.0 | 0.00 | 0.95 | 0.00 | 96 | 1009.9 |
| 20260903085931 | 56 | 315 | 2.0 | 5.0 | 0.00 | 0.95 | 0.00 | 95 | 1009.9 |
| 20260903085517 | 56 | 316 | 1.0 | 7.0 | 0.00 | 0.95 | 0.00 | 95 | 1010.0 |
| 20260903085420 | 56 | 55 | 1.0 | 7.0 | 0.00 | 0.95 | 0.00 | 95 | 1010.0 |
| 20260903085027 | 56 | 103 | 1.0 | 8.0 | 0.00 | 0.95 | 0.00 | 95 | 1010.0 |
| 20260903084930 | 56 | 298 | 2.0 | 8.0 | 0.00 | 0.95 | 0.00 | 95 | 1010.1 |
| 20260903084517 | 56 | 219 | 3.0 | 9.0 | 0.00 | 0.95 | 0.00 | 95 | 1010.1 |
| 20260903084420 | 56 | 333 | 2.0 | 9.0 | 0.00 | 0.95 | 0.00 | 95 | 1010.1 |
| 20260903084026 | 56 | 78 | 3.0 | 9.0 | 0.00 | 0.95 | 0.00 | 95 | 1010.1 |
| 20260903083929 | 56 | 63 | 3.0 | 9.0 | 0.00 | 0.95 | 0.00 | 95 | 1010.1 |
| 20260903083516 | 56 | 310 | 1.0 | 8.0 | 0.00 | 0.95 | 0.00 | 95 | 1010.1 |
| 20260903083416 | 56 | 87 | 2.0 | 8.0 | 0.00 | 0.95 | 0.00 | 95 | 1010.1 |
| 20260903083021 | 56 | 322 | 2.0 | 8.0 | 0.00 | 0.95 | 0.00 | 95 | 1010.1 |
| 20260903082921 | 56 | 243 | 2.0 | 8.0 | 0.00 | 0.95 | 0.00 | 95 | 1010.1 |
| 20260903082527 | 56 | 311 | 2.0 | 6.0 | 0.00 | 0.95 | 0.00 | 95 | 1010.1 |
| 20260903082426 | 56 | 101 | 2.0 | 6.0 | 0.00 | 0.95 | 0.00 | 95 | 1010.1 |
| 20260903082033 | 56 | 129 | 2.0 | 6.0 | 0.00 | 0.95 | 0.00 | 95 | 1010.1 |
| 20260903081914 | 56 | 297 | 3.0 | 6.0 | 0.00 | 0.95 | 0.00 | 95 | 1010.2 |
| 20260903081518 | 56 | 78 | 2.0 | 9.0 | 0.00 | 0.95 | 0.00 | 95 | 1010.2 |
| 20260903081418 | 56 | 290 | 3.0 | 9.0 | 0.00 | 0.95 | 0.00 | 95 | 1010.3 |
| 20260903081023 | 56 | 65 | 3.0 | 9.0 | 0.00 | 0.95 | 0.00 | 95 | 1010.2 |
| 20260903080923 | 56 | 259 | 3.0 | 9.0 | 0.00 | 0.95 | 0.00 | 95 | 1010.3 |
| 20260903080530 | 56 | 321 | 2.0 | 6.0 | 0.00 | 0.95 | 0.00 | 95 | 1010.2 |
| 20260903080428 | 56 | 44 | 2.0 | 6.0 | 0.00 | 0.95 | 0.00 | 95 | 1010.2 |
| 20260903080025 | 56 | 350 | 2.0 | 8.0 | 0.00 | 0.95 | 0.00 | 95 | 1010.3 |
| 20260903075927 | 56 | 312 | 3.0 | 8.0 | 0.00 | 0.95 | 0.00 | 95 | 1010.1 |
| 20260903075529 | 56 | 171 | 2.0 | 8.0 | 0.00 | 0.95 | 0.00 | 95 | 1010.2 |
| 20260903075414 | 56 | 98 | 1.0 | 8.0 | 0.00 | 0.95 | 0.00 | 95 | 1010.1 |
| 20260903075016 | 56 | 37 | 2.0 | 8.0 | 0.00 | 0.95 | 0.00 | 95 | 1010.2 |
| 20260903074924 | 56 | 283 | 2.0 | 10.0 | 0.00 | 0.95 | 0.00 | 95 | 1010.2 |
| 20260903074527 | 56 | 51 | 2.0 | 10.0 | 0.00 | 0.95 | 0.00 | 95 | 1010.2 |
| 20260903074414 | 56 | 54 | 1.0 | 10.0 | 0.00 | 0.95 | 0.00 | 95 | 1010.2 |
| 20260903074017 | 56 | 293 | 2.0 | 10.0 | 0.00 | 0.95 | 0.00 | 95 | 1010.2 |
| 20260903073922 | 56 | 333 | 2.0 | 10.0 | 0.00 | 0.95 | 0.00 | 95 | 1010.2 |
| 20260903073526 | 56 | 89 | 3.0 | 10.0 | 0.00 | 0.95 | 0.00 | 95 | 1010.2 |
| 20260903073412 | 56 | 238 | 2.0 | 10.0 | 0.00 | 0.95 | 0.00 | 95 | 1010.3 |
| 20260903073014 | 56 | 287 | 2.0 | 8.0 | 0.00 | 0.95 | 0.00 | 95 | 1010.3 |
| 20260903072916 | 56 | 63 | 2.0 | 8.0 | 0.00 | 0.95 | 0.00 | 95 | 1010.3 |
| 20260903072522 | 56 | 238 | 3.0 | 8.0 | 0.00 | 0.95 | 0.00 | 95 | 1010.3 |
| 20260903072423 | 56 | 63 | 2.0 | 8.0 | 0.00 | 0.95 | 0.00 | 95 | 1010.2 |
| 20260903072030 | 56 | 98 | 3.0 | 8.0 | 0.00 | 0.95 | 0.00 | 95 | 1010.2 |
| 20260903071912 | 56 | 80 | 3.0 | 9.0 | 0.00 | 0.95 | 0.00 | 95 | 1010.2 |
| 20260903071520 | 56 | 54 | 2.0 | 9.0 | 0.00 | 0.95 | 0.00 | 95 | 1010.2 |
| 20260903071421 | 56 | 289 | 2.0 | 9.0 | 0.00 | 0.95 | 0.00 | 95 | 1010.2 |
| 20260903071028 | 56 | 66 | 2.0 | 8.0 | 0.00 | 0.95 | 0.00 | 95 | 1010.2 |
| 20260903070929 | 56 | 73 | 3.0 | 8.0 | 0.00 | 0.95 | 0.00 | 95 | 1010.2 |
| 20260903070518 | 56 | 203 | 2.0 | 8.0 | 0.00 | 0.95 | 0.00 | 95 | 1010.2 |
| 20260903070418 | 56 | 254 | 4.0 | 8.0 | 0.00 | 0.95 | 0.00 | 95 | 1010.3 |
| 20260903070033 | 56 | 49 | 2.0 | 8.0 | 0.00 | 0.95 | 0.95 | 95 | 1010.3 |
| 20260903065930 | 56 | 140 | 2.0 | 6.0 | 0.00 | 0.95 | 0.95 | 95 | 1010.2 |
| 20260903065517 | 56 | 22 | 2.0 | 7.0 | 0.00 | 0.95 | 0.95 | 95 | 1010.1 |
| 20260903065418 | 56 | 233 | 2.0 | 7.0 | 0.00 | 0.95 | 0.95 | 95 | 1010.2 |
| 20260903065024 | 56 | 31 | 3.0 | 10.0 | 0.00 | 0.95 | 0.95 | 95 | 1010.1 |
| 20260903064928 | 56 | 49 | 3.0 | 10.0 | 0.00 | 0.95 | 0.95 | 95 | 1010.2 |
| 20260903064514 | 56 | 267 | 2.0 | 8.0 | 0.00 | 0.95 | 0.95 | 95 | 1010.2 |
| 20260903064415 | 56 | 134 | 2.0 | 8.0 | 0.00 | 0.95 | 0.95 | 95 | 1010.1 |
| 20260903064020 | 56 | 309 | 2.0 | 8.0 | 0.00 | 0.95 | 0.95 | 95 | 1010.1 |
| 20260903063921 | 56 | 109 | 3.0 | 8.0 | 0.00 | 0.95 | 0.95 | 95 | 1010.1 |
| 20260903063527 | 56 | 83 | 2.0 | 6.0 | 0.00 | 0.95 | 0.95 | 95 | 1010.2 |
| 20260903063426 | 56 | 161 | 2.0 | 6.0 | 0.00 | 0.95 | 0.95 | 95 | 1010.1 |
| 20260903063031 | 56 | 235 | 3.0 | 6.0 | 0.00 | 0.95 | 0.95 | 95 | 1010.2 |
| 20260903062913 | 56 | 69 | 2.0 | 6.0 | 0.00 | 0.95 | 0.95 | 95 | 1010.2 |
| 20260903062519 | 56 | 109 | 2.0 | 9.0 | 0.00 | 0.95 | 0.95 | 95 | 1010.2 |
| 20260903062421 | 56 | 335 | 1.0 | 9.0 | 0.00 | 0.95 | 0.95 | 95 | 1010.2 |
| 20260903062023 | 57 | 293 | 3.0 | 9.0 | 0.00 | 0.95 | 0.95 | 95 | 1010.2 |
| 20260903061930 | 57 | 94 | 3.0 | 9.0 | 0.00 | 0.95 | 0.95 | 95 | 1010.3 |
| 20260903061530 | 57 | 235 | 2.0 | 11.0 | 0.00 | 0.95 | 0.95 | 95 | 1010.2 |
| 20260903061414 | 57 | 303 | 2.0 | 11.0 | 0.00 | 0.95 | 0.95 | 95 | 1010.2 |
| 20260903061015 | 57 | 68 | 3.0 | 12.0 | 0.00 | 0.95 | 0.95 | 95 | 1010.3 |
| 20260903060920 | 57 | 51 | 2.0 | 12.0 | 0.00 | 0.95 | 0.95 | 95 | 1010.3 |